Location: ???? ?????????
(31.1304°N, 31.7111°E)
Time: 18:19:27
(UTC+00:00)

Meteor 2-15 - Pass Details

Date: 29 October 2020
Orbit: 935 x 956 km, 82.5° (Epoch: 01 December)

Event Time Altitude Azimuth Distance (km) Brightness Sun altitude
Rises 15:56:19 0° 179° (S) 3,619 7.6 -11.2°
Reaches altitude 10° 15:58:49 10° 177° (S) 2,676 6.9 -11.7°
Maximum altitude 16:04:55 73° 94° (E) 996 4.4 -13.0°
Drops below altitude 10° 16:11:02 10° 11° (N) 2,683 6.6 -14.3°
Sets 16:13:32 0° 9° (N) 3,629 7.3 -14.8°
